Aérodrome :
LOGIN :

S'inscrire | Disclaimer

   EN    FR    IT 

 










Légende :    VFR   VFR Marginal   IFR   IFR Intensif   IFR Très Intensif
Visi : 
Plafond : 
>= 8 km
>= 3000ft
5 à 8 km
1000 à 3000 ft
1500m à 5 km
500 à 1000 ft
800 à 1500m
200 à 500 ft
< 800m
< 200 ft
Symboles :   Orages  Brouillard  Fortes neiges  Fortes précipitations  Vent > 20 kt
SIGMETs :   Divers  Orages  Givrage  Turbulence  Onde Orograph.  Cendres Volcan.






- Altitude de l'aérodrome : 3360 ft
- Code IATA : QSF


DAAS - 8 Mai 45

DERNIER METAR :
  • 290300Z 27008KT 8000 SCT010 SCT030 07/07 Q1008

METARs EXPIRÉS :
  • 290200Z 28008KT 8000 SCT010 SCT026 07/06 Q1008
  • 290100Z 28014KT 7000 SCT010 BKN026 08/06 Q1007

TAF TAF DAAS
Valide du 29 à 00h jusqu'au 30 à 00h UTC


282300Z 2900/2924 27014KT 8000 SCT010 SCT026
TEMPO 2900/2912 27015G25KT 5000 -RA FEW026CB
PROB40
TEMPO 2900/2909 3000 TSRA SCT023CB
BECMG 2907/2910 31008KT



MET'MAP, la Météo Aéronautique d'un coup d'oeil ! - Copyright ORBIFLY Décembre 2007 - Disclaimer

ORBIFLY MET'MAP TEAM :

Programmation & Développement : Alexandra Zaïnal
Sur une idée originale de : Baudouin d'Aumeries
Assistance à la programmation : Marc-Olivier Méhu
Soutien technique & logistique : Manuel Goepfert

Contact : metmap@orbifly.com




SOURCES & CREDITS :

   NOAA